Location: Domont
(49.0278°N, 2.3264°E)
Time: 09:44:38
(UTC+00:00)

JY1SAT - Visible Passes

Search period start: 29 June 2022 00:00
Search period end: 09 July 2022 00:00
Orbit: 566 x 585 km, 97.6° (Epoch: 28 June)

Date Brightness Start Highest point End Pass type
(mag) Time Alt. Az. Time Alt. Az. Time Alt. Az.
29 Jun ? 21:44:04 10° SSW 21:47:59 40° W 21:51:56 10° NNW visible
30 Jun ? 21:47:46 10° SSW 21:51:37 37° W 21:55:30 10° NNW visible
01 Jul ? 21:51:29 10° SSW 21:55:15 34° W 21:59:04 10° NNW visible
02 Jul ? 21:55:11 10° SSW 21:58:53 31° W 22:02:38 10° NNW visible
03 Jul ? 21:58:55 10° SSW 22:02:32 29° W 22:06:11 10° NW visible
04 Jul ? 22:02:39 10° SSW 22:06:11 26° W 22:09:43 10° NW visible
05 Jul ? 20:30:41 10° SE 20:34:29 36° ENE 20:38:18 10° N visible
05 Jul ? 22:06:24 10° SSW 22:09:49 24° W 22:13:15 10° NW visible
06 Jul ? 20:34:13 10° SE 20:38:04 39° ENE 20:41:57 10° N visible
06 Jul ? 22:10:10 10° SW 22:13:27 23° W 22:16:46 10° NW visible
07 Jul ? 20:37:45 10° SE 20:41:40 42° ENE 20:45:35 10° N visible
07 Jul ? 22:13:56 10° SW 22:17:06 21° W 22:20:16 10° NW visible
08 Jul ? 20:41:17 10° SE 20:45:15 46° ENE 20:49:14 10° N visible
08 Jul ? 22:17:43 10° SW 22:20:44 19° W 22:23:46 10° NW visible
